ONEWEB-0047, 45152

Orbit data source: Space-Track

ONEWEB-0047, 45152 is a payload satellite owned by One Web (UK) in LEO that was launched on Thu, 06 Feb 2020 UTC via a SOYUZ-2-1B launch vehicle from the Tyuratam Missile And Space Complex (TTMTR). Payload-class satellites include a variety of spacecraft equipped with specific instruments for various scientific and technological missions. These include communications satellites like Starlink; space stations such as the ISS; scientific satellites like the Hubble; Earth observation satellites from companies like Planet Labs, Umbra, and HawkEye 360; GPS; miniature CubeSats for education and research; and military/defense satellites.

Loading next visibility...
Identifier
45152, 2020-008X
Orbit
LEO
Country
Flag of UKUK
Related business
Manufacturer
One Web
Mission
Operational Commercial Communications
Bus & Motor
ARROW, Unknown motor
Mass
148 kg wet, ~140 kg dry
Launch date (UTC)
2020-02-06 (6 years ago)
Launch vehicle
SOYUZ-2-1B
Launch site
Tyuratam Missile And Space Complex (TTMTR)
Object type
Payload
Rocket body
Debris
Shape & HBR
Trap Box + 2 Pan, 6.7 m
Radar Cross Section
3.464 m², Large (>1 m²)

Expand to show TLE details & history
Last TLE update: 7 hours ago

TLE from 7 hours ago
0 ONEWEB-0047
1 45152U 20008X   26035.05801752  .00001144  00000-0  32407-2 0  9999
2 45152  87.8764  62.7928 0002299  86.6766 273.4624 13.10381079290769
Epoch: 2026-02-04T01:23Z
TLE epoch observation values (Epoch: 2026-02-04T01:23:32.713Z)
Latitude
-0.00007°
Longitude
-92.32356°
Altitude
1,224.468 km
Speed
7.242 km/s
True Right ascension
04h 11m 10s
True Declination
0° 00' 00"
Sunlit
Object was in daylight at epoch
Visualization orbit readout
Latitude
Unknown
Longitude
Unknown
Altitude
Unknown
Speed
Unknown
Apparent Right ascension
Unknown
Apparent Declination
Unknown
Sunlit
N/A
Visualization observer readout
Local Sidereal Time
10:04:48
Azimuth
Unknown
Elevation
Unknown
Doppler factor
Unknown
Orbital elements
Apogee altitude
1,220.552 km
Perigee altitude
1,217.059 km
Semi-major axis
7,596.942 km
Eccentricity
0.00023
Inclination
87.8764°
RAAN
62.7928°
Arg. of periapsis
86.6766°
True anomaly
273.4361°
Mean anomaly
273.4624°
Eccentric anomaly
273.44925°
Mean motion
3.27782 °/min
Orbital period
109.83 mins
BSTAR
0.0032407
Loading maneuver chart data...
Computing Atmospheric mass density...
Loading historical data...
Loading historical data...
Loading historical data...
Loading historical data...
Loading historical data...
Loading historical data...
Loading historical data...

Documentation

Showing up to 5 results
|